Location: Rounton
(54.4000°N, 1.3500°W)
Time: 23:53:16
(UTC+01:00)

Vanguard 3 - Pass Details

Date: 23 April 2024
Orbit: 509 x 3233 km, 33.3° (Epoch: 18 May)

Event Time Altitude Azimuth Distance (km) Brightness Sun altitude
Exits shadow 02:37:05 12° 168° (SSE) 5,233 10.8 -20.1°
Maximum altitude 02:40:52 14° 153° (SSE) 4,840 10.7 -19.9°
Drops below altitude 10° 02:46:25 10° 128° (SE) 4,657 10.9 -19.5°
Sets 02:52:04 0° 105° (ESE) 5,071 11.4 -19.1°
